Location: Brachbach
(49.1847°N, 9.7240°E)
Time: 18:55:15
(UTC+00:00)

Meteor 2-5 Rocket - Pass Details

Date: 12 August 2024
Orbit: 833 x 910 km, 81.2° (Epoch: 07 September)

Event Time Altitude Azimuth Distance (km) Brightness Sun altitude
Rises 02:09:53 0° 347° (NNW) 3,459 7.4 -16.5°
Reaches altitude 10° 02:12:18 10° 347° (NNW) 2,529 6.7 -16.2°
Maximum altitude 02:18:05 87° 260° (W) 892 3.8 -15.6°
Drops below altitude 10° 02:23:56 10° 171° (S) 2,562 5.9 -14.9°
Enters shadow 02:25:31 - 171° (S) 3,169 6.3 -14.7°
